{"data":{"norad_id":64212,"intl_designator":"2025-117K","name":"STARLINK-34284","alt_names":[],"object_type":"PAYLOAD","status":"ACTIVE","operator":null,"country":"US","launch_date":"2025-05-31","launch_site_code":"AFWTR","launch_vehicle":null,"mission":null,"orbit_class":"UNKNOWN","rcs_meters":null,"size_class":null,"mass_kg":null,"dimensions":null,"purposes":["comms"],"wikipedia_slug":null,"has_3d_model":false,"image_url":null,"decayed_at":null,"tle_current":{"epoch":"2026-09-20T06:07:58.340640Z","epoch_age_seconds":161630,"freshness":"FRESH","line1":"1 64212U 25117K   26263.25553635  .00019218  00000+0  57828-3 0  9997","line2":"2 64212  53.1599 214.5109 0001142 109.1251 250.9875 15.34409656 74334","mean_motion":15.34409656,"eccentricity":0.0001142,"inclination_deg":53.1599,"raan_deg":214.5109,"arg_perigee_deg":109.1251,"mean_anomaly_deg":250.9875,"bstar":0.00057828,"rev_number":7433,"period_min":93.847167499837,"perigee_km":461.89332001275,"apogee_km":463.45576136865,"semimajor_km":6840.8115406907,"source":"CELESTRAK","updated_at":"2026-09-21T09:00:35.271824Z"}}}